Regional Weather Roundup
Issued by NWS

Home | Current Version | Previous Version | Text Only | Print | Product List | Glossary On
Versions: 1 2 3 4 5 6 7 8 9 10 11 12 13 14 15 16 17 18 19 20 21 22 23 24 25 26 27 28 29 30 31 32 33 34 35 36 37 38 39 40 41 42 43 44 45 46 47 48 49 50
000
ASUS45 KTFX 252210
RWRMT
MONTANA REGIONAL WEATHER ROUNDUP
NATIONAL WEATHER SERVICE GREAT FALLS MT
400 PM MDT WED APR 25 2018

NOTE: "FAIR" INDICATES FEW OR NO CLOUDS BELOW 12000 FEET WITH NO
SIGNIFICANT WEATHER AND/OR OBSTRUCTIONS TO VISIBILITY.

MTZ001>007-043-252300-
WEST OF THE DIVIDE

CITY           SKY/WX    TMP DP  RH WIND       PRES   REMARKS
KALISPELL      FAIR      67  31  26 VRB5      30.07F
MISSOULA       PTSUNNY   69  31  24 NW9       30.05F
BUTTE          PTSUNNY   62  23  22 N9        30.10F
MULLAN PASS    FAIR      54  21  27 VRB7      30.18R
ANACONDA         N/A     63  21  20 MISG        N/A
DEER LODGE       N/A     64  25  22 MISG      30.10F
HAMILTON         N/A     70  27  19 SW10G17   30.08F
RONAN            N/A     68  32  26 CALM      30.07S
$$

MTZ008-052>055-252300-
SOUTHWEST MONTANA

CITY           SKY/WX    TMP DP  RH WIND       PRES   REMARKS
BOZEMAN        PTSUNNY   66  23  19 W15G21    30.06F
DILLON         FAIR      63  21  20 W15       30.09F
ENNIS            N/A     63  19  19 W13G22    30.12F
W YELLOWSTONE  FAIR      52  19  28 SW15G22   30.15S
THREE FORKS      N/A     65  26  23 N12       30.04F
TWIN BRIDGES     N/A     67  23  19 NW8       30.06F
$$

MTZ009-010-012-014-046-048-049-054-252300-
EAST SLOPES AND CENTRAL MONTANA

CITY           SKY/WX    TMP DP  RH WIND       PRES   REMARKS
CUT BANK       PTSUNNY   54  28  36 NW10      30.17S
GREAT FALLS    CLOUDY    51  33  50 N14       30.18R
MALMSTROM AFB  LGT RAIN  50  31  47 N6        30.18R
HELENA         FAIR      61  31  32 N22G31    30.09R
AUGUSTA        PTSUNNY   48  33  56 N5        30.18R
BOWMANS CRNR   LGT RAIN  47  34  60 N16       30.18R
CHOTEAU          N/A     55  28  35 N9G20     30.19R
FAIRFIELD      PTSUNNY   53  29  39 NE6       30.17R
POWER          PTSUNNY   55  26  33 N14G20    30.16R
RAYNESFORD     LGT RAIN  51  31  46 W17       30.17R
ULM            LGT RAIN  51  34  53 N15       30.18R
WHITE SULPHUR    N/A     57  30  35 NW22G29   30.08R
$$

MTZ011-013-016-021-045-047-050-051-252300-
NORTH CENTRAL MONTANA

CITY           SKY/WX    TMP DP  RH WIND       PRES   REMARKS
HAVRE          FAIR      61  29  29 N15G21    30.09R
LEWISTOWN      FAIR      55  28  35 NW20G33   30.08R
N BAR RANCH    FAIR      59  23  25 W23G30    30.08R
CHINOOK          N/A     61  30  31 MISG      30.06R
GEYSER         FAIR      51  30  44 N24       30.14R
GRASS RANGE    PTSUNNY   58  27  30 N23G31    30.02R
STANFORD       FAIR      53  28  37 N28G33    30.12R
$$

MTZ017>020-022>027-061-062-252300-
NORTHEAST MONTANA

CITY           SKY/WX    TMP DP  RH WIND       PRES   REMARKS
GLASGOW        FAIR      68  26  20 N21G32    29.91R
GLENDIVE       FAIR      66  28  24 NW18      29.88S
JORDAN           N/A     62  31  31 NW25G35   29.93R
MALTA          SUNNY     63  30  29 NW20G26   29.98R
SIDNEY         FAIR      69  24  18 W18       29.83F
WOLF POINT     FAIR      69  31  24 NW17G26   29.87S
PLENTYWOOD       N/A     64  28  25 MISG      29.83R
POPLAR           N/A     66  28  24 MISG      29.86S
SCOBEY           N/A     63  24  22 N21       29.88R
$$

MTZ028>42-056>058-252300-
SOUTHCENTRAL AND SOUTHEAST MONTANA

CITY           SKY/WX    TMP DP  RH WIND       PRES   REMARKS
BAKER          FAIR      64  27  24 NW21G30   29.90F
BILLINGS       PTSUNNY   68  22  17 NW20G29   29.99F
LIVINGSTON     FAIR      65  24  21 NW21G32   30.04F
MILES CITY     FAIR      67  30  25 NW25G31   29.91S
BIG TIMBER     SUNNY     61  19  20 NW16G33   30.06S
EKALAKA          N/A     66  22  19 W18       29.92
FORSYTH          N/A     66  27  22 MISG      29.92S
HARLOWTON      PTSUNNY   56  28  33 N24G30    30.05F
LAUREL           N/A     66  23  19 NW18G28   30.01F
ROUNDUP          N/A     62  23  22 W21       29.92R
$$

REGIONAL REPORTS...DAKOTAS

CITY           SKY/WX    TMP DP  RH WIND       PRES   REMARKS
WILLISTON      FAIR      67  29  24 W20G26    29.81F
MINOT          FAIR      71  21  15 SW22G30   29.76F
DICKINSON      FAIR      69  23  17 W25       29.83F
BEACH          FAIR      64  27  24 W20       29.91F
CROSBY         FAIR      66  28  24 NW21      29.80S
TIOGA          FAIR      64  28  25 W18G29    29.81S
WATFORD CITY   FAIR      68  28  22 W16G23    29.81F
BISMARCK       FAIR      69  24  18 SW20G28   29.86F
GRAND FORKS    PTSUNNY   63  37  38 SW22G32   29.86F
FARGO          FAIR      65  29  25 SW21G31   29.94F
BUFFALO SD       N/A     72  23  16 W21       29.83F
RAPID CITY     FAIR      75  11   8 W12       29.89F
$$

REGIONAL REPORTS...WYOMING/IDAHO/WASHINGTON

CITY           SKY/WX    TMP DP  RH WIND       PRES   REMARKS
GILLETTE       FAIR      71  22  15 SW10      29.91F
SHERIDAN       FAIR      66  27  23 NW24      29.98R
BUFFALO WY     FAIR      71  18  13 N26G38    29.97S
CODY           FAIR      65  19  17 N12       30.02F
YELLOWSTONE LA   N/A     49  15  25 W8G17     30.19F
IDAHO FALLS    FAIR      64  25  22 SW13G25   30.14F
SALMON         FAIR      68  27  21 NE6       30.08F
BOISE          FAIR      75  31  19 W8        30.11F
SPOKANE        FAIR      71  26  18 N8        30.11S
$$

REGIONAL REPORTS...ALBERTA

CITY           SKY/WX    TMP DP  RH WIND       PRES   REMARKS
CALGARY        MOSUNNY   57  25  28 VRB14     30.14F
CARDSTON         N/A     55  30  38 N3          N/A
EDMONTON       MOSUNNY   57  25  28 N8        30.08F
FORT MCMURRAY  PTSUNNY   61  23  23 NW8       29.95F
HIGH LEVEL     MOSUNNY   63  23  22 SW5G18    29.85F
LETHBRIDGE     PTSUNNY   57  28  33 NW9G22    30.16S
LLOYDMINSTER   MOSUNNY   59  21  23 NW18G26   30.04R
MEDICINE HAT   PTSUNNY   63  25  23 NW17G31   30.08F
MILK RIVER       N/A     54  32  43 N13G20      N/A
PEACE RIVER    MOSUNNY   55  30  38 SW16G23   30.00F
PINCHER CREEK  SUNNY     54  30  40 S6        30.16F
WATERTON GATE    N/A     54  27  35 E5          N/A
$$

REGIONAL REPORTS...SASKATCHEWAN

CITY           SKY/WX    TMP DP  RH WIND       PRES   REMARKS
CORONACH         N/A     63  23  22 N23G30      N/A
CYPRESS HILLS    N/A     52  23  32 NW14G25     N/A
ESTEVAN        CLOUDY    66  30  26 N21G26    29.78R
MOOSE JAW        N/A     63  25  23 N21         N/A
PRINCE ALBERT  MOSUNNY   59  27  29 N21       29.97R
REGINA         PTSUNNY   63  30  29 N20G29    29.90R
ROCKGLEN         N/A     59  23  25 N23G31      N/A
SASKATOON      PTSUNNY   61  25  25 N20G28    29.98R
SWIFT CURRENT  PTSUNNY   59  28  31 NW21G31   29.98S
VAL MARIE        N/A     61  25  25 N30G37      N/A
$$



USA.gov is the U.S. government's official web portal to all federal, state and local government web resources and services.